Voltar ao catálogo

FENGYUN 1C DEB

AtivoSSO
NORAD 32111·DEBRIS·🇨🇳 China

Lançado May 10, 1999 de Taiyuan Satellite Launch Center

Loading…

Próximas Passagens (próximas 24 horas)

TLE

AtualizadoSource: Space-Track

Época: Sep 13, 2026, 05:53 UTC

1 32111U 99025CRD 26256.24534903  .00000301  00000-0  11849-3 0  9994
2 32111  98.4545 253.7671 0120807 112.6103 312.7025 14.31859314999598

Acompanhe FENGYUN 1C DEB em tempo real com AllMySat

Download on the App Store